Time,TemperatureF,DewpointF,PressureIn,WindDirection,WindDirectionDegrees,WindSpeedMPH,WindSpeedGustMPH,Humidity,HourlyPrecipIn,Conditions,Clouds,dailyrainin,SoftwareType,DateUTC
2013-02-01 00:00:00,31.7,25.0,29.97,SW,233,0.0,0.0,76,0.00,,,0.03,Wunderground v.1.15,2013-02-01 05:00:00,
2013-02-01 00:04:00,31.8,25.1,29.97,SW,233,0.0,0.0,76,0.00,,,0.00,Wunderground v.1.15,2013-02-01 05:04:00,
2013-02-01 00:09:00,32.0,24.6,29.97,SW,233,0.0,0.0,74,0.00,,,0.00,Wunderground v.1.15,2013-02-01 05:09:00,
2013-02-01 00:14:00,32.2,24.2,29.98,SW,233,0.0,0.0,72,0.00,,,0.00,Wunderground v.1.15,2013-02-01 05:14:00,
2013-02-01 00:19:00,32.5,23.1,29.98,SSW,198,0.0,1.0,68,0.00,,,0.00,Wunderground v.1.15,2013-02-01 05:19:00,
2013-02-01 00:24:00,32.9,23.8,29.98,SSW,198,0.0,1.0,69,0.00,,,0.00,Wunderground v.1.15,2013-02-01 05:24:00,
2013-02-01 00:34:00,33.2,23.8,29.97,SSW,198,0.0,0.0,68,0.00,,,0.00,Wunderground v.1.15,2013-02-01 05:34:00,
2013-02-01 00:39:00,33.2,23.4,29.97,SSW,198,0.0,1.0,67,0.00,,,0.00,Wunderground v.1.15,2013-02-01 05:39:00,
2013-02-01 00:44:00,33.2,23.8,29.97,SW,217,0.0,1.0,68,0.00,,,0.00,Wunderground v.1.15,2013-02-01 05:44:00,
2013-02-01 00:54:00,33.1,23.7,29.97,SSW,194,0.0,0.0,68,0.00,,,0.00,Wunderground v.1.15,2013-02-01 05:54:00,
2013-02-01 00:59:00,33.1,23.3,29.97,SSW,195,0.0,1.0,67,0.00,,,0.00,Wunderground v.1.15,2013-02-01 05:59:00,
2013-02-01 01:04:00,33.3,23.5,29.97,SSW,202,0.0,1.0,67,0.00,,,0.00,Wunderground v.1.15,2013-02-01 06:04:00,
2013-02-01 01:14:00,33.5,23.7,29.97,WSW,242,0.0,0.0,67,0.00,,,0.00,Wunderground v.1.15,2013-02-01 06:14:00,
2013-02-01 01:19:00,33.6,23.8,29.96,South,175,0.0,0.0,67,0.00,,,0.00,Wunderground v.1.15,2013-02-01 06:19:00,
2013-02-01 01:24:00,33.5,24.1,29.97,WSW,248,0.0,2.0,68,0.00,,,0.00,Wunderground v.1.15,2013-02-01 06:24:00,
2013-02-01 01:34:00,33.7,23.9,29.97,South,186,1.0,1.0,67,0.00,,,0.00,Wunderground v.1.15,2013-02-01 06:34:00,
2013-02-01 01:39:00,33.9,24.4,29.96,South,175,1.0,1.0,68,0.00,,,0.00,Wunderground v.1.15,2013-02-01 06:39:00,
2013-02-01 01:44:00,34.0,25.2,29.95,South,178,1.0,1.0,70,0.00,,,0.00,Wunderground v.1.15,2013-02-01 06:44:00,
2013-02-01 01:54:00,33.9,24.8,29.95,South,178,0.0,1.0,69,0.00,,,0.00,Wunderground v.1.15,2013-02-01 06:54:00,
2013-02-01 01:59:00,33.8,25.0,29.95,South,178,0.0,0.0,70,0.00,,,0.00,Wunderground v.1.15,2013-02-01 06:59:00,
2013-02-01 02:04:00,33.7,25.0,29.95,South,178,0.0,0.0,70,0.00,,,0.00,Wunderground v.1.15,2013-02-01 07:04:00,
2013-02-01 02:14:00,33.5,25.1,29.94,South,175,0.0,0.0,71,0.00,,,0.00,Wunderground v.1.15,2013-02-01 07:14:00,
2013-02-01 02:19:00,33.4,25.0,29.94,South,175,0.0,0.0,71,0.00,,,0.00,Wunderground v.1.15,2013-02-01 07:19:00,
2013-02-01 02:24:00,33.4,25.0,29.93,South,175,0.0,0.0,71,0.00,,,0.00,Wunderground v.1.15,2013-02-01 07:24:00,
2013-02-01 02:34:00,33.2,25.1,29.93,SSE,165,0.0,1.0,72,0.00,,,0.00,Wunderground v.1.15,2013-02-01 07:34:00,
2013-02-01 02:39:00,33.2,25.1,29.92,South,179,0.0,0.0,72,0.00,,,0.00,Wunderground v.1.15,2013-02-01 07:39:00,
2013-02-01 02:44:00,33.2,25.1,29.92,South,179,0.0,1.0,72,0.00,,,0.00,Wunderground v.1.15,2013-02-01 07:44:00,
2013-02-01 02:49:00,33.2,25.1,29.92,South,179,0.0,0.0,72,0.00,,,0.00,Wunderground v.1.15,2013-02-01 07:49:00,
2013-02-01 02:59:00,33.1,25.1,29.91,South,179,0.0,0.0,72,0.00,,,0.00,Wunderground v.1.15,2013-02-01 07:59:00,
2013-02-01 03:04:00,33.0,25.3,29.91,South,182,0.0,0.0,73,0.00,,,0.00,Wunderground v.1.15,2013-02-01 08:04:00,
2013-02-01 03:09:00,33.0,25.3,29.91,South,181,0.0,0.0,73,0.00,,,0.00,Wunderground v.1.15,2013-02-01 08:09:00,
2013-02-01 03:14:00,33.0,25.3,29.91,South,181,0.0,0.0,73,0.00,,,0.00,Wunderground v.1.15,2013-02-01 08:14:00,
2013-02-01 03:24:00,33.0,25.6,29.90,South,171,0.0,0.0,74,0.00,,,0.00,Wunderground v.1.15,2013-02-01 08:24:00,
2013-02-01 03:29:00,33.2,25.8,29.90,SSW,211,1.0,3.0,74,0.00,,,0.00,Wunderground v.1.15,2013-02-01 08:29:00,
2013-02-01 03:39:00,33.5,26.1,29.89,South,172,1.0,1.0,74,0.00,,,0.00,Wunderground v.1.15,2013-02-01 08:39:00,
2013-02-01 03:44:00,33.7,26.0,29.88,SSW,203,1.0,1.0,73,0.00,,,0.00,Wunderground v.1.15,2013-02-01 08:44:00,
2013-02-01 03:49:00,34.0,26.3,29.87,SSW,192,2.0,2.0,73,0.00,,,0.00,Wunderground v.1.15,2013-02-01 08:49:00,
2013-02-01 03:59:00,34.8,26.4,29.87,SSW,203,2.0,2.0,71,0.00,,,0.00,Wunderground v.1.15,2013-02-01 08:59:00,
2013-02-01 04:04:00,35.2,26.7,29.87,South,186,1.0,2.0,71,0.00,,,0.00,Wunderground v.1.15,2013-02-01 09:04:00,
2013-02-01 04:09:00,35.6,26.8,29.87,South,190,2.0,2.0,70,0.00,,,0.00,Wunderground v.1.15,2013-02-01 09:09:00,
2013-02-01 04:19:00,36.5,27.3,29.87,South,187,2.0,2.0,69,0.00,,,0.00,Wunderground v.1.15,2013-02-01 09:19:00,
2013-02-01 04:24:00,36.9,27.0,29.87,SW,226,2.0,4.0,67,0.00,,,0.00,Wunderground v.1.15,2013-02-01 09:24:00,
2013-02-01 04:29:00,37.2,27.2,29.87,South,179,2.0,3.0,67,0.00,,,0.00,Wunderground v.1.15,2013-02-01 09:29:00,
2013-02-01 04:34:00,37.4,27.4,29.87,South,171,2.0,3.0,67,0.00,,,0.00,Wunderground v.1.15,2013-02-01 09:34:00,
2013-02-01 04:44:00,37.4,27.1,29.87,SSW,202,1.0,2.0,66,0.00,,,0.00,Wunderground v.1.15,2013-02-01 09:44:00,
2013-02-01 04:49:00,37.6,27.3,29.87,WSW,249,1.0,1.0,66,0.00,,,0.00,Wunderground v.1.15,2013-02-01 09:49:00,
2013-02-01 04:54:00,37.9,27.5,29.88,WSW,243,1.0,1.0,66,0.00,,,0.00,Wunderground v.1.15,2013-02-01 09:54:00,
2013-02-01 05:04:00,38.6,27.8,29.88,SSE,162,2.0,7.0,65,0.00,,,0.00,Wunderground v.1.15,2013-02-01 10:04:00,
2013-02-01 05:09:00,39.1,27.9,29.88,WSW,253,3.0,3.0,64,0.00,,,0.00,Wunderground v.1.15,2013-02-01 10:09:00,
2013-02-01 05:14:00,39.4,27.8,29.89,SSW,210,3.0,3.0,63,0.00,,,0.00,Wunderground v.1.15,2013-02-01 10:14:00,
2013-02-01 05:19:00,39.7,27.7,29.89,NW,313,3.0,3.0,62,0.00,,,0.00,Wunderground v.1.15,2013-02-01 10:19:00,
2013-02-01 05:29:00,40.2,28.2,29.90,WSW,250,3.0,7.0,62,0.00,,,0.00,Wunderground v.1.15,2013-02-01 10:29:00,
2013-02-01 05:34:00,40.4,28.4,29.89,SSE,163,4.0,7.0,62,0.00,,,0.00,Wunderground v.1.15,2013-02-01 10:34:00,
2013-02-01 05:39:00,40.5,28.1,29.90,WNW,296,4.0,4.0,61,0.00,,,0.00,Wunderground v.1.15,2013-02-01 10:39:00,
2013-02-01 05:49:00,40.5,27.7,29.92,WNW,288,3.0,3.0,60,0.00,,,0.00,Wunderground v.1.15,2013-02-01 10:49:00,
2013-02-01 05:54:00,40.6,27.8,29.92,West,278,3.0,3.0,60,0.00,,,0.00,Wunderground v.1.15,2013-02-01 10:54:00,
2013-02-01 05:59:00,40.4,28.0,29.93,West,277,3.0,3.0,61,0.00,,,0.00,Wunderground v.1.15,2013-02-01 10:59:00,
2013-02-01 06:09:00,40.3,28.3,29.94,SW,225,2.0,4.0,62,0.00,,,0.00,Wunderground v.1.15,2013-02-01 11:09:00,
2013-02-01 06:14:00,40.3,28.3,29.94,WNW,298,2.0,4.0,62,0.00,,,0.00,Wunderground v.1.15,2013-02-01 11:14:00,
2013-02-01 06:19:00,40.2,28.2,29.94,SW,236,2.0,2.0,62,0.00,,,0.00,Wunderground v.1.15,2013-02-01 11:19:00,
2013-02-01 06:24:00,40.2,28.6,29.95,WSW,251,2.0,2.0,63,0.00,,,0.00,Wunderground v.1.15,2013-02-01 11:24:00,
2013-02-01 06:34:00,40.2,28.6,29.96,West,271,2.0,3.0,63,0.00,,,0.00,Wunderground v.1.15,2013-02-01 11:34:00,
2013-02-01 06:39:00,40.2,28.6,29.97,SSW,209,1.0,2.0,63,0.00,,,0.00,Wunderground v.1.15,2013-02-01 11:39:00,
2013-02-01 06:44:00,40.3,28.7,29.98,North,5,3.0,3.0,63,0.00,,,0.00,Wunderground v.1.15,2013-02-01 11:44:00,
2013-02-01 06:54:00,39.4,29.3,30.00,North,9,2.0,4.0,67,0.00,,,0.00,Wunderground v.1.15,2013-02-01 11:54:00,
2013-02-01 06:59:00,38.4,28.0,30.00,NNE,17,2.0,2.0,66,0.00,,,0.00,Wunderground v.1.15,2013-02-01 11:59:00,
2013-02-01 07:04:00,37.8,27.5,30.01,North,355,2.0,2.0,66,0.00,,,0.00,Wunderground v.1.15,2013-02-01 12:04:00,
2013-02-01 07:14:00,36.9,25.9,30.03,North,11,2.0,2.0,64,0.00,,,0.00,Wunderground v.1.15,2013-02-01 12:14:00,
2013-02-01 07:19:00,36.5,25.1,30.04,North,349,1.0,1.0,63,0.00,,,0.00,Wunderground v.1.15,2013-02-01 12:19:00,
2013-02-01 07:24:00,36.2,24.8,30.04,North,5,1.0,1.0,63,0.00,,,0.00,Wunderground v.1.15,2013-02-01 12:24:00,
2013-02-01 07:29:00,35.7,24.3,30.05,North,355,2.0,2.0,63,0.00,,,0.00,Wunderground v.1.15,2013-02-01 12:29:00,
2013-02-01 07:39:00,35.0,23.7,30.06,North,360,1.0,1.0,63,0.00,,,0.00,Wunderground v.1.15,2013-02-01 12:39:00,
2013-02-01 07:44:00,34.6,22.9,30.07,WNW,294,1.0,2.0,62,0.00,,,0.00,Wunderground v.1.15,2013-02-01 12:44:00,
2013-02-01 07:49:00,34.1,20.4,30.07,NNE,27,1.0,1.0,57,0.00,,,0.00,Wunderground v.1.15,2013-02-01 12:49:00,
2013-02-01 07:59:00,33.4,18.9,30.09,ENE,72,2.0,3.0,55,0.00,,,0.00,Wunderground v.1.15,2013-02-01 12:59:00,
2013-02-01 08:04:00,33.2,18.3,30.09,NNE,24,2.0,3.0,54,0.00,,,0.00,Wunderground v.1.15,2013-02-01 13:04:00,
2013-02-01 08:09:00,33.1,18.2,30.09,NE,51,2.0,2.0,54,0.00,,,0.00,Wunderground v.1.15,2013-02-01 13:09:00,
2013-02-01 08:14:00,32.9,17.2,30.10,ESE,109,2.0,2.0,52,0.00,,,0.00,Wunderground v.1.15,2013-02-01 13:14:00,
2013-02-01 08:24:00,32.8,17.1,30.11,SSW,205,1.0,2.0,52,0.00,,,0.00,Wunderground v.1.15,2013-02-01 13:24:00,
2013-02-01 08:29:00,32.8,15.7,30.12,WNW,290,2.0,3.0,49,0.00,,,0.00,Wunderground v.1.15,2013-02-01 13:29:00,
2013-02-01 08:39:00,33.0,15.9,30.13,ESE,116,2.0,2.0,49,0.00,,,0.00,Wunderground v.1.15,2013-02-01 13:39:00,
2013-02-01 08:44:00,33.0,15.9,30.14,NE,55,2.0,4.0,49,0.00,,,0.00,Wunderground v.1.15,2013-02-01 13:44:00,
2013-02-01 08:49:00,33.0,15.4,30.14,North,5,2.0,2.0,48,0.00,,,0.00,Wunderground v.1.15,2013-02-01 13:49:00,
2013-02-01 08:54:00,33.1,16.0,30.14,NW,309,2.0,2.0,49,0.00,,,0.00,Wunderground v.1.15,2013-02-01 13:54:00,
2013-02-01 09:04:00,32.8,14.8,30.15,WSW,250,2.0,4.0,47,0.00,,,0.00,Wunderground v.1.15,2013-02-01 14:04:00,
2013-02-01 09:09:00,32.8,14.3,30.16,NNW,348,2.0,2.0,46,0.00,,,0.00,Wunderground v.1.15,2013-02-01 14:09:00,
2013-02-01 09:14:00,32.4,12.4,30.16,WSW,258,3.0,3.0,43,0.00,,,0.00,Wunderground v.1.15,2013-02-01 14:14:00,
2013-02-01 09:19:00,32.2,12.7,30.17,East,80,3.0,3.0,44,0.00,,,0.00,Wunderground v.1.15,2013-02-01 14:19:00,
2013-02-01 09:29:00,32.1,11.0,30.17,North,355,2.0,4.0,41,0.00,,,0.00,Wunderground v.1.15,2013-02-01 14:29:00,
2013-02-01 09:34:00,32.2,10.5,30.18,West,261,3.0,4.0,40,0.00,,,0.00,Wunderground v.1.15,2013-02-01 14:34:00,
2013-02-01 09:39:00,32.4,10.7,30.18,NE,46,2.0,4.0,40,0.00,,,0.00,Wunderground v.1.15,2013-02-01 14:39:00,
2013-02-01 09:49:00,32.3,7.0,30.19,North,11,3.0,8.0,34,0.00,,,0.00,Wunderground v.1.15,2013-02-01 14:49:00,
2013-02-01 09:54:00,32.1,5.5,30.19,NE,40,4.0,8.0,32,0.00,,,0.00,Wunderground v.1.15,2013-02-01 14:54:00,
2013-02-01 09:59:00,32.3,7.0,30.20,WNW,288,3.0,3.0,34,0.00,,,0.00,Wunderground v.1.15,2013-02-01 14:59:00,
2013-02-01 10:09:00,32.4,5.8,30.21,WNW,286,3.0,3.0,32,0.00,,,0.00,Wunderground v.1.15,2013-02-01 15:09:00,
2013-02-01 10:14:00,32.4,7.1,30.21,WNW,283,2.0,3.0,34,0.00,,,0.00,Wunderground v.1.15,2013-02-01 15:14:00,
2013-02-01 10:19:00,32.3,6.4,30.22,WNW,284,3.0,3.0,33,0.00,,,0.00,Wunderground v.1.15,2013-02-01 15:19:00,
2013-02-01 10:29:00,32.8,8.1,30.23,NE,38,3.0,3.0,35,0.00,,,0.00,Wunderground v.1.15,2013-02-01 15:29:00,
2013-02-01 10:34:00,33.0,8.3,30.23,ENE,66,3.0,3.0,35,0.00,,,0.00,Wunderground v.1.15,2013-02-01 15:34:00,
2013-02-01 10:39:00,33.2,7.2,30.24,ENE,57,3.0,5.0,33,0.00,,,0.00,Wunderground v.1.15,2013-02-01 15:39:00,
2013-02-01 10:44:00,33.2,8.5,30.24,SSW,210,3.0,6.0,35,0.00,,,0.00,Wunderground v.1.15,2013-02-01 15:44:00,
2013-02-01 10:54:00,33.4,9.3,30.24,WNW,299,3.0,3.0,36,0.00,,,0.00,Wunderground v.1.15,2013-02-01 15:54:00,
2013-02-01 10:59:00,33.4,8.0,30.24,NE,52,2.0,3.0,34,0.00,,,0.00,Wunderground v.1.15,2013-02-01 15:59:00,
2013-02-01 11:09:00,33.1,7.7,30.25,WSW,246,3.0,10.0,34,0.00,,,0.00,Wunderground v.1.15,2013-02-01 16:09:00,
2013-02-01 11:14:00,32.9,7.6,30.25,NE,46,3.0,10.0,34,0.00,,,0.00,Wunderground v.1.15,2013-02-01 16:14:00,
2013-02-01 11:19:00,33.2,7.8,30.25,ENE,64,3.0,12.0,34,0.00,,,0.00,Wunderground v.1.15,2013-02-01 16:19:00,
2013-02-01 11:24:00,33.5,8.7,30.25,NNE,24,2.0,12.0,35,0.00,,,0.00,Wunderground v.1.15,2013-02-01 16:24:00,
2013-02-01 11:34:00,34.2,9.4,30.25,NNE,23,2.0,2.0,35,0.00,,,0.00,Wunderground v.1.15,2013-02-01 16:34:00,
2013-02-01 11:39:00,34.3,8.8,30.25,NNE,13,2.0,2.0,34,0.00,,,0.00,Wunderground v.1.15,2013-02-01 16:39:00,
2013-02-01 11:44:00,34.3,7.4,30.25,WNW,298,3.0,3.0,32,0.00,,,0.00,Wunderground v.1.15,2013-02-01 16:44:00,
2013-02-01 11:54:00,34.1,8.6,30.25,NE,48,2.0,3.0,34,0.00,,,0.00,Wunderground v.1.15,2013-02-01 16:54:00,
2013-02-01 11:59:00,34.2,8.0,30.26,ENE,69,2.0,2.0,33,0.00,,,0.00,Wunderground v.1.15,2013-02-01 16:59:00,
2013-02-01 12:04:00,34.3,9.4,30.26,NE,40,2.0,2.0,35,0.00,,,0.00,Wunderground v.1.15,2013-02-01 17:04:00,
2013-02-01 12:14:00,34.7,7.1,30.26,NNE,20,3.0,4.0,31,0.00,,,0.00,Wunderground v.1.15,2013-02-01 17:14:00,
2013-02-01 12:19:00,34.6,9.7,30.26,ENE,59,3.0,3.0,35,0.00,,,0.00,Wunderground v.1.15,2013-02-01 17:19:00,
2013-02-01 12:24:00,34.9,9.3,30.26,WNW,299,2.0,3.0,34,0.00,,,0.00,Wunderground v.1.15,2013-02-01 17:24:00,
2013-02-01 12:34:00,34.9,8.0,30.26,SSE,156,2.0,3.0,32,0.00,,,0.00,Wunderground v.1.15,2013-02-01 17:34:00,
2013-02-01 12:39:00,34.7,8.5,30.25,NNW,346,3.0,4.0,33,0.00,,,0.00,Wunderground v.1.15,2013-02-01 17:39:00,
2013-02-01 12:44:00,34.8,7.9,30.25,ENE,57,3.0,4.0,32,0.00,,,0.00,Wunderground v.1.15,2013-02-01 17:44:00,
2013-02-01 12:54:00,35.0,6.6,30.25,NW,312,2.0,3.0,30,0.00,,,0.00,Wunderground v.1.15,2013-02-01 17:54:00,
2013-02-01 12:59:00,35.2,8.2,30.25,WNW,286,2.0,2.0,32,0.00,,,0.00,Wunderground v.1.15,2013-02-01 17:59:00,
2013-02-01 13:04:00,35.3,8.3,30.25,NNW,333,2.0,2.0,32,0.00,,,0.00,Wunderground v.1.15,2013-02-01 18:04:00,
2013-02-01 13:09:00,35.3,6.2,30.25,East,98,2.0,5.0,29,0.00,,,0.00,Wunderground v.1.15,2013-02-01 18:09:00,
2013-02-01 13:19:00,35.4,8.4,30.25,NNW,330,3.0,3.0,32,0.00,,,0.00,Wunderground v.1.15,2013-02-01 18:19:00,
2013-02-01 13:24:00,35.7,8.0,30.25,ENE,57,2.0,3.0,31,0.00,,,0.00,Wunderground v.1.15,2013-02-01 18:24:00,
2013-02-01 13:29:00,35.5,6.3,30.25,NE,39,3.0,4.0,29,0.00,,,0.00,Wunderground v.1.15,2013-02-01 18:29:00,
2013-02-01 13:39:00,35.2,6.1,30.24,NNW,344,2.0,2.0,29,0.00,,,0.00,Wunderground v.1.15,2013-02-01 18:39:00,
2013-02-01 13:44:00,35.5,8.5,30.25,West,277,2.0,4.0,32,0.00,,,0.00,Wunderground v.1.15,2013-02-01 18:44:00,
2013-02-01 13:49:00,35.8,8.1,30.25,North,5,2.0,2.0,31,0.00,,,0.00,Wunderground v.1.15,2013-02-01 18:49:00,
2013-02-01 13:59:00,36.0,6.8,30.25,WNW,286,3.0,3.0,29,0.00,,,0.00,Wunderground v.1.15,2013-02-01 18:59:00,
2013-02-01 14:04:00,36.2,9.8,30.25,West,271,2.0,3.0,33,0.00,,,0.00,Wunderground v.1.15,2013-02-01 19:04:00,
2013-02-01 14:09:00,36.8,6.7,30.25,SE,142,2.0,3.0,28,0.00,,,0.00,Wunderground v.1.15,2013-02-01 19:09:00,
2013-02-01 14:14:00,36.9,9.0,30.25,North,10,1.0,3.0,31,0.00,,,0.00,Wunderground v.1.15,2013-02-01 19:14:00,
2013-02-01 14:24:00,37.4,8.7,30.25,North,355,2.0,2.0,30,0.00,,,0.00,Wunderground v.1.15,2013-02-01 19:24:00,
2013-02-01 14:29:00,37.5,8.1,30.25,NNW,327,3.0,3.0,29,0.00,,,0.00,Wunderground v.1.15,2013-02-01 19:29:00,
2013-02-01 14:34:00,37.5,8.8,30.26,WNW,285,2.0,3.0,30,0.00,,,0.00,Wunderground v.1.15,2013-02-01 19:34:00,
2013-02-01 14:44:00,37.7,7.5,30.26,NW,316,2.0,2.0,28,0.00,,,0.00,Wunderground v.1.15,2013-02-01 19:44:00,
2013-02-01 14:49:00,37.6,5.7,30.26,WSW,252,3.0,3.0,26,0.00,,,0.00,Wunderground v.1.15,2013-02-01 19:49:00,
2013-02-01 14:54:00,37.6,6.6,30.26,West,268,3.0,3.0,27,0.00,,,0.00,Wunderground v.1.15,2013-02-01 19:54:00,
2013-02-01 14:59:00,37.7,7.5,30.27,ENE,57,2.0,3.0,28,0.00,,,0.00,Wunderground v.1.15,2013-02-01 19:59:00,
2013-02-01 15:09:00,37.2,6.2,30.26,WNW,287,2.0,2.0,27,0.00,,,0.00,Wunderground v.1.15,2013-02-01 20:09:00,
2013-02-01 15:14:00,37.5,5.7,30.26,West,269,2.0,2.0,26,0.00,,,0.00,Wunderground v.1.15,2013-02-01 20:14:00,
2013-02-01 15:19:00,37.1,5.3,30.26,NNW,344,4.0,4.0,26,0.00,,,0.00,Wunderground v.1.15,2013-02-01 20:19:00,
2013-02-01 15:29:00,37.5,5.7,30.27,NNE,19,2.0,2.0,26,0.00,,,0.00,Wunderground v.1.15,2013-02-01 20:29:00,
2013-02-01 15:34:00,37.7,5.8,30.27,North,360,2.0,2.0,26,0.00,,,0.00,Wunderground v.1.15,2013-02-01 20:34:00,
2013-02-01 15:39:00,37.5,3.9,30.27,NNW,344,3.0,3.0,24,0.00,,,0.00,Wunderground v.1.15,2013-02-01 20:39:00,
2013-02-01 15:49:00,37.5,4.8,30.27,WNW,302,2.0,2.0,25,0.00,,,0.00,Wunderground v.1.15,2013-02-01 20:49:00,
2013-02-01 15:54:00,37.7,5.8,30.27,WNW,283,2.0,2.0,26,0.00,,,0.00,Wunderground v.1.15,2013-02-01 20:54:00,
2013-02-01 15:59:00,37.8,6.8,30.27,SSW,205,1.0,1.0,27,0.00,,,0.00,Wunderground v.1.15,2013-02-01 20:59:00,
2013-02-01 16:04:00,37.6,5.7,30.27,WNW,282,2.0,2.0,26,0.00,,,0.00,Wunderground v.1.15,2013-02-01 21:04:00,
2013-02-01 16:14:00,37.1,5.3,30.27,WNW,298,3.0,3.0,26,0.00,,,0.00,Wunderground v.1.15,2013-02-01 21:14:00,
2013-02-01 16:19:00,37.0,5.2,30.27,North,5,2.0,2.0,26,0.00,,,0.00,Wunderground v.1.15,2013-02-01 21:19:00,
2013-02-01 16:24:00,37.0,6.1,30.27,WNW,291,1.0,2.0,27,0.00,,,0.00,Wunderground v.1.15,2013-02-01 21:24:00,
2013-02-01 16:34:00,36.9,6.8,30.28,WNW,296,1.0,2.0,28,0.00,,,0.00,Wunderground v.1.15,2013-02-01 21:34:00,
2013-02-01 16:39:00,36.7,6.6,30.28,NNW,343,1.0,1.0,28,0.00,,,0.00,Wunderground v.1.15,2013-02-01 21:39:00,
2013-02-01 16:44:00,36.4,5.5,30.27,NNE,32,1.0,3.0,27,0.00,,,0.00,Wunderground v.1.15,2013-02-01 21:44:00,
2013-02-01 16:54:00,35.5,4.8,30.28,NW,305,1.0,2.0,27,0.00,,,0.00,Wunderground v.1.15,2013-02-01 21:54:00,
2013-02-01 16:59:00,35.1,5.2,30.28,NNW,337,1.0,1.0,28,0.00,,,0.00,Wunderground v.1.15,2013-02-01 21:59:00,
2013-02-01 17:04:00,34.8,5.7,30.28,SW,234,1.0,1.0,29,0.00,,,0.00,Wunderground v.1.15,2013-02-01 22:04:00,
2013-02-01 17:14:00,34.2,6.7,30.28,NW,323,1.0,4.0,31,0.00,,,0.00,Wunderground v.1.15,2013-02-01 22:14:00,
2013-02-01 17:19:00,33.9,5.7,30.29,West,265,1.0,1.0,30,0.00,,,0.00,Wunderground v.1.15,2013-02-01 22:19:00,
2013-02-01 17:24:00,33.6,6.8,30.29,NW,306,0.0,1.0,32,0.00,,,0.00,Wunderground v.1.15,2013-02-01 22:24:00,
2013-02-01 17:29:00,33.4,6.7,30.29,NW,305,0.0,0.0,32,0.00,,,0.00,Wunderground v.1.15,2013-02-01 22:29:00,
2013-02-01 17:39:00,32.8,7.5,30.30,NW,305,0.0,0.0,34,0.00,,,0.00,Wunderground v.1.15,2013-02-01 22:39:00,
2013-02-01 17:44:00,32.6,8.6,30.30,NW,305,0.0,0.0,36,0.00,,,0.00,Wunderground v.1.15,2013-02-01 22:44:00,
2013-02-01 17:49:00,32.2,9.4,30.30,NW,305,0.0,0.0,38,0.00,,,0.00,Wunderground v.1.15,2013-02-01 22:49:00,
2013-02-01 17:54:00,31.8,9.6,30.30,NW,305,0.0,0.0,39,0.00,,,0.00,Wunderground v.1.15,2013-02-01 22:54:00,
2013-02-01 18:04:00,31.2,11.3,30.30,NW,305,0.0,0.0,43,0.00,,,0.00,Wunderground v.1.15,2013-02-01 23:04:00,
2013-02-01 18:09:00,30.9,10.5,30.30,NW,305,0.0,0.0,42,0.00,,,0.00,Wunderground v.1.15,2013-02-01 23:09:00,
2013-02-01 18:14:00,30.5,9.0,30.30,NW,305,0.0,0.0,40,0.00,,,0.00,Wunderground v.1.15,2013-02-01 23:14:00,
2013-02-01 18:24:00,30.0,10.2,30.31,NW,305,0.0,0.0,43,0.00,,,0.00,Wunderground v.1.15,2013-02-01 23:24:00,
2013-02-01 18:29:00,29.7,10.4,30.31,NW,305,0.0,0.0,44,0.00,,,0.00,Wunderground v.1.15,2013-02-01 23:29:00,
2013-02-01 18:34:00,29.5,12.2,30.32,NW,305,0.0,0.0,48,0.00,,,0.00,Wunderground v.1.15,2013-02-01 23:34:00,
2013-02-01 18:44:00,28.9,11.2,30.32,NW,305,0.0,0.0,47,0.00,,,0.00,Wunderground v.1.15,2013-02-01 23:44:00,
2013-02-01 18:49:00,28.7,12.8,30.32,NW,305,0.0,0.0,51,0.00,,,0.00,Wunderground v.1.15,2013-02-01 23:49:00,
2013-02-01 18:54:00,28.5,13.1,30.32,NW,305,0.0,0.0,52,0.00,,,0.00,Wunderground v.1.15,2013-02-01 23:54:00,
2013-02-01 19:04:00,28.1,13.1,30.32,NW,305,0.0,0.0,53,0.00,,,0.00,Wunderground v.1.15,2013-02-02 00:04:00,
2013-02-01 19:09:00,27.9,13.0,30.32,NW,305,0.0,0.0,53,0.00,,,0.00,Wunderground v.1.15,2013-02-02 00:09:00,
2013-02-01 19:14:00,27.8,14.1,30.33,NW,305,0.0,0.0,56,0.00,,,0.00,Wunderground v.1.15,2013-02-02 00:14:00,
2013-02-01 19:19:00,27.5,14.2,30.33,NW,305,0.0,0.0,57,0.00,,,0.00,Wunderground v.1.15,2013-02-02 00:19:00,
2013-02-01 19:29:00,27.1,11.8,30.33,NW,305,0.0,0.0,52,0.00,,,0.00,Wunderground v.1.15,2013-02-02 00:29:00,
2013-02-01 19:34:00,27.1,11.8,30.33,NW,305,0.0,0.0,52,0.00,,,0.00,Wunderground v.1.15,2013-02-02 00:34:00,
2013-02-01 19:39:00,27.2,12.7,30.33,NW,305,0.0,0.0,54,0.00,,,0.00,Wunderground v.1.15,2013-02-02 00:39:00,
2013-02-01 19:49:00,27.0,13.0,30.34,NW,305,0.0,0.0,55,0.00,,,0.00,Wunderground v.1.15,2013-02-02 00:49:00,
2013-02-01 19:54:00,26.9,12.9,30.34,NW,305,0.0,0.0,55,0.00,,,0.00,Wunderground v.1.15,2013-02-02 00:54:00,
2013-02-01 19:59:00,26.7,11.8,30.34,NW,305,0.0,0.0,53,0.00,,,0.00,Wunderground v.1.15,2013-02-02 00:59:00,
2013-02-01 20:09:00,26.5,10.3,30.35,NW,305,0.0,0.0,50,0.00,,,0.00,Wunderground v.1.15,2013-02-02 01:09:00,
2013-02-01 20:14:00,26.6,13.4,30.34,NW,305,0.0,0.0,57,0.00,,,0.00,Wunderground v.1.15,2013-02-02 01:14:00,
2013-02-01 20:19:00,26.3,11.9,30.34,NW,305,0.0,0.0,54,0.00,,,0.00,Wunderground v.1.15,2013-02-02 01:19:00,
2013-02-01 20:24:00,26.2,12.2,30.35,NW,305,0.0,0.0,55,0.00,,,0.00,Wunderground v.1.15,2013-02-02 01:24:00,
2013-02-01 20:34:00,25.8,14.6,30.36,NW,305,0.0,0.0,62,0.00,,,0.00,Wunderground v.1.15,2013-02-02 01:34:00,
2013-02-01 20:39:00,25.7,14.1,30.36,NW,305,0.0,0.0,61,0.00,,,0.00,Wunderground v.1.15,2013-02-02 01:39:00,
2013-02-01 20:44:00,25.7,14.1,30.36,NW,305,0.0,0.0,61,0.00,,,0.00,Wunderground v.1.15,2013-02-02 01:44:00,
2013-02-01 20:54:00,25.5,14.6,30.37,NW,305,0.0,0.0,63,0.00,,,0.00,Wunderground v.1.15,2013-02-02 01:54:00,
2013-02-01 20:59:00,25.3,13.0,30.37,NW,305,0.0,0.0,59,0.00,,,0.00,Wunderground v.1.15,2013-02-02 01:59:00,
2013-02-01 21:04:00,25.2,12.5,30.37,NW,305,0.0,0.0,58,0.00,,,0.00,Wunderground v.1.15,2013-02-02 02:04:00,
2013-02-01 21:14:00,25.3,11.4,30.37,NW,305,0.0,0.0,55,0.00,,,0.00,Wunderground v.1.15,2013-02-02 02:14:00,
2013-02-01 21:19:00,25.2,12.1,30.38,NW,305,0.0,0.0,57,0.00,,,0.00,Wunderground v.1.15,2013-02-02 02:19:00,
2013-02-01 21:24:00,25.1,12.8,30.38,NW,305,0.0,0.0,59,0.00,,,0.00,Wunderground v.1.15,2013-02-02 02:24:00,
2013-02-01 21:34:00,24.8,14.0,30.38,NW,305,0.0,0.0,63,0.00,,,0.00,Wunderground v.1.15,2013-02-02 02:34:00,
2013-02-01 21:39:00,24.7,13.9,30.37,NW,305,0.0,0.0,63,0.00,,,0.00,Wunderground v.1.15,2013-02-02 02:39:00,
2013-02-01 21:44:00,24.6,12.7,30.37,NW,305,0.0,0.0,60,0.00,,,0.00,Wunderground v.1.15,2013-02-02 02:44:00,
2013-02-01 21:54:00,24.5,14.8,30.38,NW,305,0.0,0.0,66,0.00,,,0.00,Wunderground v.1.15,2013-02-02 02:54:00,
2013-02-01 21:59:00,24.4,14.3,30.37,NW,305,0.0,0.0,65,0.00,,,0.00,Wunderground v.1.15,2013-02-02 02:59:00,
2013-02-01 22:04:00,24.4,12.1,30.37,NW,305,0.0,0.0,59,0.00,,,0.00,Wunderground v.1.15,2013-02-02 03:04:00,
2013-02-01 22:14:00,24.5,11.4,30.38,NW,305,0.0,0.0,57,0.00,,,0.00,Wunderground v.1.15,2013-02-02 03:14:00,
2013-02-01 22:19:00,24.4,12.9,30.38,NW,305,0.0,0.0,61,0.00,,,0.00,Wunderground v.1.15,2013-02-02 03:19:00,
2013-02-01 22:24:00,24.4,13.2,30.38,NW,305,0.0,0.0,62,0.00,,,0.00,Wunderground v.1.15,2013-02-02 03:24:00,
2013-02-01 22:29:00,24.4,12.5,30.37,NW,305,0.0,0.0,60,0.00,,,0.00,Wunderground v.1.15,2013-02-02 03:29:00,
2013-02-01 22:39:00,24.4,11.3,30.37,NW,305,0.0,0.0,57,0.00,,,0.00,Wunderground v.1.15,2013-02-02 03:39:00,
2013-02-01 22:44:00,24.4,13.2,30.37,NW,305,0.0,0.0,62,0.00,,,0.00,Wunderground v.1.15,2013-02-02 03:44:00,
2013-02-01 22:49:00,24.3,14.2,30.38,NW,305,0.0,0.0,65,0.00,,,0.00,Wunderground v.1.15,2013-02-02 03:49:00,
2013-02-01 22:59:00,24.2,13.0,30.37,NW,305,0.0,0.0,62,0.00,,,0.00,Wunderground v.1.15,2013-02-02 03:59:00,
2013-02-01 23:04:00,24.0,13.6,30.37,NW,305,0.0,0.0,64,0.00,,,0.00,Wunderground v.1.15,2013-02-02 04:04:00,
2013-02-01 23:09:00,24.2,11.5,30.37,NNW,339,0.0,0.0,58,0.00,,,0.00,Wunderground v.1.15,2013-02-02 04:09:00,
2013-02-01 23:19:00,24.7,11.2,30.37,NNE,29,0.0,0.0,56,0.00,,,0.00,Wunderground v.1.15,2013-02-02 04:19:00,
2013-02-01 23:24:00,24.8,11.7,30.37,NNE,30,0.0,0.0,57,0.00,,,0.00,Wunderground v.1.15,2013-02-02 04:24:00,
2013-02-01 23:29:00,24.9,11.0,30.37,NNE,29,0.0,0.0,55,0.00,,,0.00,Wunderground v.1.15,2013-02-02 04:29:00,
2013-02-01 23:34:00,25.0,11.5,30.37,NNE,29,0.0,0.0,56,0.00,,,0.00,Wunderground v.1.15,2013-02-02 04:34:00,
2013-02-01 23:44:00,24.8,12.1,30.37,NNE,29,0.0,0.0,58,0.00,,,0.00,Wunderground v.1.15,2013-02-02 04:44:00,
2013-02-01 23:49:00,24.6,11.9,30.37,NNE,29,0.0,0.0,58,0.00,,,0.00,Wunderground v.1.15,2013-02-02 04:49:00,
2013-02-01 23:54:00,24.5,12.2,30.37,NNE,29,0.0,0.0,59,0.00,,,0.00,Wunderground v.1.15,2013-02-02 04:54:00,
2013-02-01 23:59:00,24.4,13.2,30.37,NNE,29,0.0,0.0,62,0.00,,,0.00,Wunderground v.1.15,2013-02-02 04:59:00,